Weather observations for the past three days for
Santa Barbara, Santa Barbara Municipal Airport
Imperial (Metric)
Date Time (pdt) Wind (mph) Vis. (mi.) Weather Sky Cond. Temperature (ºF) Relative Humidity Wind Chill (°F) Heat Index (°F) Pressure Precipitation (in)
Air Dwpt 6 hour altimeter (in) sea level (mb) 1 hr 3 hr 6 hr
Max. Min.
20 16:53 SW 7 10.00 Fair CLR 73.9 59 75.9 66 60% 29.88 1011.9
20 15:53 Vrbl 6 10.00 Fair CLR 73 60.1 64% 29.9 1012.5
20 14:53 S 6 10.00 Fair CLR 72 60.1 66% 29.92 1013.2
20 13:53 SW 6 10.00 Fair CLR 72 60.1 66% 29.94 1013.7
20 12:53 SW 7 10.00 Fair CLR 70 60.1 71% 29.94 1013.9
20 11:53 Vrbl 6 10.00 Fair CLR 66.9 60.1 79% 29.96 1014.3
20 10:53 S 7 7.00 Partly Cloudy SCT005 68 60.1 68 57.9 76% 29.96 1014.4
20 09:53 S 6 3.00 Fog/Mist OVC002 62.1 59 90% 29.96 1014.4
20 08:53 S 6 6.00 Fog/Mist BKN003 61 59 93% 29.96 1014.4
20 07:53 E 5 0.25 Fog VV002 59 59 100% 29.95 1014.2
20 06:53 E 5 0.75 Fog/Mist VV002 57.9 57.9 100% 29.95 1014.0
20 05:53 E 5 0.75 Fog/Mist VV002 59 57.9 96% 29.93 1013.6
20 04:53 SE 5 0.25 Fog VV002 57.9 57.9 60.1 57.9 100% 29.92 1013.1
20 03:53 E 3 0.50 Fog VV002 59 59 100% 29.92 1013.0
20 02:53 SE 6 0.75 Fog/Mist VV002 59 59 100% 29.91 1012.9
20 01:53 SE 6 0.50 Fog VV002 59 59 100% 29.92 1013.0
20 00:53 E 5 1.00 Fog/Mist VV002 59 59 100% 29.93 1013.4
19 23:53 SE 3 0.50 Fog VV002 59 59 100% 29.93 1013.6
19 22:52 Calm 1.75 Fog/Mist BKN002 59 59 66.9 59 100% 29.94 1013.8
19 21:53 Calm 8.00 Fair CLR 61 57.9 90% 29.94 1013.9
19 20:53 SW 5 9.00 Fair CLR 61 59 93% 29.93 1013.6
19 19:53 SW 6 9.00 Fair CLR 62.1 59 90% 29.93 1013.5
19 18:53 SW 8 10.00 Fair CLR 64 59 84% 29.92 1013.3
19 17:53 W 9 10.00 Fair CLR 66 59 78% 29.92 1013.3
19 16:53 W 10 10.00 Partly Cloudy SCT002 64.9 59 70 64 81% 29.95 1014.2
19 15:53 SW 10 10.00 Partly Cloudy SCT008 66.9 60.1 79% 29.96 1014.5
19 14:53 S 7 10.00 Partly Cloudy SCT008 68 60.1 76% 29.97 1014.9
19 13:53 S 9 9.00 Partly Cloudy SCT008 66.9 60.1 79% 29.99 1015.4
19 12:53 S 8 10.00 Partly Cloudy SCT005 66.9 60.1 79% 29.99 1015.6
19 11:53 S 6 10.00 Partly Cloudy SCT005 66.9 60.1 79% 30 1015.8
19 10:53 S 6 10.00 Mostly Cloudy BKN004 64 59 64.9 59 84% 30 1015.9
19 09:53 S 6 4.00 Fog/Mist BKN004 63 59 87% 30 1015.8
19 08:53 Vrbl 3 6.00 Fog/Mist OVC004 61 57.9 90% 30 1015.9
19 07:53 Calm 4.00 Fog/Mist OVC004 60.1 57.9 93% 30 1015.7
19 06:53 SW 3 5.00 Fog/Mist OVC004 59 57.9 96% 29.99 1015.4
19 05:53 S 6 9.00 Overcast OVC004 59 57 93% 29.98 1015.1
19 04:53 SE 5 6.00 Fog/Mist OVC003 60.1 57.9 62.1 60.1 93% 29.96 1014.6
19 03:53 E 8 6.00 Fog/Mist OVC003 60.1 57.9 93% 29.96 1014.6
19 02:53 E 10 7.00 Overcast OVC004 61 59 93% 29.96 1014.3
19 01:53 E 12 7.00 Overcast OVC004 61 59 93% 29.96 1014.3
19 00:53 E 9 7.00 Overcast OVC004 62.1 60.1 93% 29.95 1014.3
18 23:53 E 7 8.00 Overcast OVC005 62.1 60.1 93% 29.95 1014.3
18 22:53 E 7 8.00 Fair CLR 62.1 59 71.1 60.1 90% 29.96 1014.4
18 21:53 E 5 9.00 Fair CLR 62.1 59 90% 29.95 1014.3
18 20:53 SE 5 9.00 Fair CLR 61 57.9 90% 29.95 1014.0
18 19:53 S 3 9.00 Fair CLR 64 60.1 87% 29.94 1013.9
18 18:53 W 8 10.00 Fair CLR 69.1 59 70% 29.94 1013.8
18 17:53 SW 8 10.00 Fair CLR 70 59 68% 29.94 1013.9
18 16:53 W 10 10.00 Fair CLR 70 59 71.1 64 68% 29.96 1014.3
18 15:53 W 8 10.00 Fair CLR 69.1 60.1 73% 29.97 1015.0
18 14:53 SW 8 10.00 Fair CLR 70 60.1 71% 29.99 1015.6
18 13:53 SW 8 10.00 Fair CLR 68 59 73% 29.99 1015.4
18 12:53 S 5 10.00 Partly Cloudy SCT007 69.1 60.1 73% 30 1015.8
18 11:53 SW 7 9.00 Mostly Cloudy BKN005 66 59 78% 30 1015.7
18 10:53 S 7 9.00 Mostly Cloudy BKN008 66 59 66 61 78% 29.99 1015.4
18 09:53 SW 3 8.00 Mostly Cloudy BKN005 64 59 84% 29.99 1015.4
18 08:53 SW 6 8.00 Mostly Cloudy BKN007 63 59 87% 29.98 1015.1
18 07:53 Calm 6.00 Fog/Mist BKN007 63 59 87% 29.96 1014.6
18 06:53 Calm 7.00 Mostly Cloudy BKN007 62.1 59 90% 29.96 1014.4
18 05:53 S 3 9.00 Overcast OVC007 61 59 93% 29.94 1013.9
18 04:53 E 3 8.00 Overcast OVC006 62.1 59 63 59 90% 29.94 1013.8
18 03:53 E 5 8.00 Fair CLR 60.1 57.9 93% 29.92 1013.2
18 02:53 E 6 9.00 Overcast OVC005 61 59 93% 29.93 1013.3
18 01:53 E 10 9.00 Overcast OVC006 61 59 93% 29.92 1013.3
18 00:53 E 12 9.00 Overcast OVC007 62.1 59 90% 29.91 1013.0
17 23:53 E 8 8.00 Mostly Cloudy BKN008 63 60.1 90% 29.92 1013.1
17 22:53 E 8 8.00 Fair CLR 63 60.1 73 63 90% 29.9 1012.6
17 21:53 E 7 9.00 Fair CLR 64 60.1 87% 29.9 1012.3
17 20:53 SE 6 9.00 Fair CLR 64 60.1 87% 29.89 1012.0
17 19:53 Calm 10.00 Fair CLR 66 59 78% 29.88 1011.8
17 18:53 W 5 10.00 Fair CLR 68 59 73% 29.88 1011.9
17 17:53 W 7 10.00 Fair CLR 71.1 59 66% 29.9 1012.4
Date Time (pdt) Wind (mph) Vis. (mi.) Weather Sky Cond. Air Dwpt Max. Min. Relative Humidity Wind Chill (°F) Heat Index (°F) altimeter (in) sea level (mb) 1 hr 3 hr 6 hr
6 hour
Temperature (ºF) Pressure Precipitation (in)